Content
SEND FEEDBACK

Daily
Averages
Monthly
Summary
United States of America

MONMOUTH, OREGON


Home > North America > United States > Oregon
Elevation: 447 feet     Latitude: 44 52N     Longitude: 123 26W

WEATHER
 
SELECT A DAY
Number of Records: 445,832;   Date Range: 1/1/95 - 9/30/14
 
SHARE

PRINT THIS DATA

[ ← Previous Day ]
WEATHER ALMANAC - FEBRUARY 13, 2013
[ Next Day → ]
[ °C ]   °F
Weather ElementAverageHighLow
Temperature48.6 °F53.6 °F (2:55 pm)44.6 °F (7:35 am)
Dewpoint43.7 °F46.4 °F (10:55 am)39.2 °F (10:15 pm)
Humidity83.4 %93 % (12:35 am)71 % (4:55 pm)
Barometer30.48 in30.53 in (11:15 pm)30.46 in (2:55 pm)
Wind Speed5.5 mph10.4 mph (11:55 am)
Weather ElementAverage
Visibility10 mi
Wind DirectionSSE (170.4 °)

Weather ElementTotal
Precipitation---
Heating Degree Days15.9 (Base 65)
Averaged from 70 records on February 13, 2013
WEATHER CONDITIONS BREAKOUT
WIND DIRECTION BREAKOUT
WEATHER BY HOUR - FEBRUARY 13, 2013
[ °C ]   °F
Local TimeTemperatureDewpointHumidityBarometerVisibilityWind DirectionWind SpeedGust SpeedPrecipitationEventsConditions
12:35 AM46.4 °F44.6 °F93 %30.49 in10.0 miCalmOvercast
12:55 AM46.4 °F44.6 °F93 %30.49 in10.0 miCalmOvercast
1:15 AM46.4 °F42.8 °F87 %30.48 in10.0 miSSW (210°)4.6 mphOvercast
1:35 AM46.4 °F42.8 °F87 %30.48 in10.0 miSW (220°)4.6 mphOvercast
1:55 AM46.4 °F42.8 °F87 %30.48 in10.0 miCalmOvercast
2:15 AM46.4 °F42.8 °F87 %30.48 in10.0 miEast (100°)4.6 mphOvercast
2:35 AM46.4 °F42.8 °F87 %30.47 in10.0 miSSE (150°)4.6 mphOvercast
2:55 AM46.4 °F42.8 °F87 %30.48 in10.0 miCalmOvercast
3:15 AM46.4 °F42.8 °F87 %30.47 in10.0 miCalmOvercast
3:35 AM46.4 °F42.8 °F87 %30.47 in10.0 miCalmOvercast
4:15 AM46.4 °F44.6 °F93 %30.47 in10.0 miSSE (150°)4.6 mphOvercast
4:35 AM46.4 °F44.6 °F93 %30.47 in10.0 miSSE (150°)5.8 mphOvercast
4:55 AM46.4 °F44.6 °F93 %30.47 in10.0 miSSE (150°)5.8 mphOvercast
5:15 AM46.4 °F44.6 °F93 %30.47 in10.0 miSSE (150°)5.8 mphOvercast
5:35 AM46.4 °F42.8 °F87 %30.48 in10.0 miSSE (160°)5.8 mphOvercast
5:55 AM46.4 °F44.6 °F93 %30.48 in10.0 miSSE (160°)4.6 mphOvercast
6:15 AM46.4 °F42.8 °F87 %30.47 in10.0 miSE (140°)4.6 mphOvercast
6:35 AM46.4 °F42.8 °F87 %30.47 in10.0 miSE (130°)3.5 mphOvercast
6:55 AM46.4 °F42.8 °F87 %30.47 in10.0 miSSE (150°)5.8 mphOvercast
7:15 AM46.4 °F42.8 °F87 %30.47 in10.0 miSSE (160°)5.8 mphOvercast
7:35 AM44.6 °F42.8 °F93 %30.48 in10.0 miSE (140°)4.6 mphOvercast
7:55 AM46.4 °F44.6 °F93 %30.49 in10.0 miSSW (200°)3.5 mphOvercast
8:15 AM46.4 °F44.6 °F93 %30.48 in10.0 miSouth (180°)3.5 mphOvercast
8:35 AM46.4 °F44.6 °F93 %30.48 in10.0 miCalmMostly Cloudy
8:55 AM48.2 °F44.6 °F87 %30.49 in10.0 miSSE (150°)5.8 mphMostly Cloudy
9:15 AM50.0 °F44.6 °F82 %30.49 in10.0 miSSE (150°)6.9 mphOvercast
9:35 AM50.0 °F44.6 °F82 %30.49 in10.0 miSSE (150°)6.9 mphOvercast
9:55 AM50.0 °F44.6 °F82 %30.50 in10.0 miSE (140°)9.2 mphOvercast
10:15 AM51.8 °F44.6 °F76 %30.50 in10.0 miSSE (150°)9.2 mphOvercast
10:35 AM51.8 °F44.6 °F76 %30.51 in10.0 miSSE (150°)9.2 mphOvercast
10:55 AM50.0 °F46.4 °F87 %30.51 in10.0 miSSE (150°)8.1 mphOvercast
11:15 AM50.0 °F44.6 °F82 %30.51 in10.0 miSE (140°)9.2 mphOvercast
11:35 AM51.8 °F44.6 °F76 %30.50 in10.0 miSSE (150°)9.2 mphOvercast
11:55 AM51.8 °F46.4 °F82 %30.50 in10.0 miSSE (150°)10.4 mph
12:15 PM51.8 °F46.4 °F82 %30.49 in10.0 miSSE (150°)9.2 mphOvercast
12:35 PM51.8 °F46.4 °F82 %30.49 in10.0 miSSE (150°)8.1 mphOvercast
12:55 PM51.8 °F46.4 °F82 %30.48 in10.0 miSSE (160°)8.1 mphOvercast
1:15 PM51.8 °F46.4 °F82 %30.48 in10.0 miSSE (150°)8.1 mphOvercast
1:35 PM51.8 °F46.4 °F82 %30.48 in10.0 miSE (140°)8.1 mphOvercast
1:55 PM51.8 °F46.4 °F82 %30.47 in10.0 miSSE (150°)8.1 mphOvercast
2:15 PM51.8 °F46.4 °F82 %30.47 in10.0 miSSE (150°)5.8 mphOvercast
2:35 PM51.8 °F46.4 °F82 %30.47 in10.0 miESE (110°)5.8 mphOvercast
2:55 PM53.6 °F46.4 °F77 %30.46 in10.0 miSSE (150°)8.1 mphOvercast
3:15 PM53.6 °F46.4 °F77 %30.46 in10.0 miSSE (160°)5.8 mphOvercast
3:35 PM51.8 °F46.4 °F82 %30.46 in10.0 miSE (130°)3.5 mphOvercast
3:55 PM53.6 °F46.4 °F77 %30.46 in10.0 miCalmOvercast
4:15 PM53.6 °F46.4 °F77 %30.46 in10.0 miSE (140°)3.5 mphOvercast
4:35 PM51.8 °F46.4 °F82 %30.47 in10.0 miSSE (150°)3.5 mphMostly Cloudy
4:55 PM51.8 °F42.8 °F71 %30.47 in10.0 miWNW (300°)5.8 mphOvercast
5:15 PM51.8 °F42.8 °F71 %30.47 in10.0 miNW (310°)4.6 mphOvercast
5:35 PM50.0 °F42.8 °F76 %30.46 in10.0 miWest (270°)4.6 mphOvercast
5:55 PM50.0 °F42.8 °F76 %30.47 in10.0 miNW (310°)5.8 mphOvercast
6:15 PM50.0 °F42.8 °F76 %30.47 in10.0 miWest (280°)10.4 mphOvercast
6:35 PM48.2 °F42.8 °F82 %30.47 in10.0 miWest (270°)8.1 mphOvercast
6:55 PM48.2 °F42.8 °F82 %30.48 in10.0 miWNW (290°)9.2 mphOvercast
7:15 PM48.2 °F42.8 °F82 %30.49 in10.0 miWNW (290°)9.2 mphOvercast
7:35 PM48.2 °F42.8 °F82 %30.48 in10.0 miWest (280°)5.8 mphOvercast
7:55 PM48.2 °F41.0 °F76 %30.49 in10.0 miWNW (300°)10.4 mphOvercast
8:15 PM46.4 °F41.0 °F81 %30.49 in10.0 miWNW (300°)8.1 mphOvercast
8:35 PM46.4 °F41.0 °F81 %30.50 in10.0 miWNW (290°)9.2 mphOvercast
8:55 PM46.4 °F41.0 °F81 %30.50 in10.0 miWNW (300°)6.9 mphOvercast
9:15 PM46.4 °F41.0 °F81 %30.50 in10.0 miNW (310°)8.1 mphOvercast
9:35 PM46.4 °F41.0 °F81 %30.51 in10.0 miWNW (300°)8.1 mphOvercast
9:55 PM46.4 °F41.0 °F81 %30.51 in10.0 miWNW (300°)4.6 mphOvercast
10:15 PM46.4 °F39.2 °F76 %30.52 in10.0 miNW (320°)4.6 mphOvercast
10:35 PM46.4 °F41.0 °F81 %30.52 in10.0 miWest (280°)4.6 mphOvercast
10:55 PM46.4 °F41.0 °F81 %30.52 in10.0 miWest (270°)3.5 mphOvercast
11:15 PM46.4 °F41.0 °F81 %30.53 in10.0 miWNW (290°)3.5 mphOvercast
11:35 PM46.4 °F41.0 °F81 %30.52 in10.0 miCalmOvercast
11:55 PM44.6 °F41.0 °F87 %30.53 in10.0 miCalmOvercast
Hourly data recorded from KCVO, located miles away from Monmouth, Oregon







STORIES FROM OUR PARTNERS